sat.trackr.live / text

‹ back to catalog

STARLINK-35115

NORAD 65665 · 2025-211P

PAYLOAD ACTIVE UNKNOWN

§ Identity

Operator
Country
US
Launch date
2025-09-19
Launch site
AFWTR
Launch vehicle
Mass (kg)
RCS (m²)

Purposes: comms

External: N2YO · Heavens-Above · Gunter

§ Orbital elements

Epoch: 2026-05-25T02:47:14.445888Z

Period
95.64 min
Inclination
97.4475°
Eccentricity
0.0002120
Mean motion
15.05655516 rev/d
Perigee alt
548.0 km
Apogee alt
551.0 km
Semi-major
6,927.6 km
B*
1.6094e-4
RAAN
189.0587°
Arg perigee
104.5467°
Mean anomaly
255.5995°
Rev number
3,854

§ Raw data

STARLINK-351151 65665U 25211P   26145.11613942  .00002265  00000+0  16094-3 0  99912 65665  97.4475 189.0587 0002120 104.5467 255.5995 15.05655516 38545

JSON: /api/v1/satellites/65665 · /tle

For live sub-satellite position, see the globe view (requires WebGL).

§ Visibility from observer

Set your observer location to see the next 7 days of passes ≥ 10°. The values pass through the URL so the page stays shareable.

No JS? Fill the form by hand. The geolocation button needs JavaScript.